Content
SEND FEEDBACK

Daily
Averages
Monthly
Summary
United Kingdom

CRANBROOK, ENGLAND


Home > Europe > United Kingdom > England
Elevation: 305 feet     Latitude: 51 16N     Longitude: 000 24E

WEATHER
 
SELECT A DAY
Number of Records: 139,863;   Date Range: 7/1/96 - 7/31/14
 
SHARE

PRINT THIS DATA

[ ← Previous Day ]
WEATHER ALMANAC - NOVEMBER 1, 2013
[ Next Day → ]
[ °C ]   °F
Weather ElementAverageHighLow
Temperature52.7 °F55.4 °F (2:20 pm)50 °F (7:50 am)
Dewpoint49.7 °F51.8 °F (9:50 am)32 °F (8:50 am)
Humidity90.5 %94 % (7:50 am)47 % (8:50 am)
Barometer29.77 in29.92 in (7:50 am)29.62 in (7:50 pm)
Wind Speed8.6 mph13.8 mph (1:50 pm)
Weather ElementAverage
Visibility5.9 mi
Wind DirectionSSW (189.2 °)

Weather ElementTotal
Precipitation---
Heating Degree Days12.3 (Base 65)
Growing Degree Days2.7 (Base 50)
Averaged from 24 records on November 1, 2013
WEATHER CONDITIONS BREAKOUT
WIND DIRECTION BREAKOUT
WEATHER BY HOUR - NOVEMBER 1, 2013
[ °C ]   °F
Local TimeTemperatureDewpointHumidityBarometerVisibilityWind DirectionWind SpeedGust SpeedPrecipitationEventsConditions
7:50 AM50.0 °F48.2 °F94 %29.92 in6.2 miSSW (210°)4.6 mphMostly Cloudy
8:50 AM51.8 °F32.0 °F47 %29.89 in6.2 miSSW (200°)6.9 mphMostly Cloudy
9:50 AM53.6 °F51.8 °F94 %29.89 in6.2 miSSW (200°)8.1 mphMostly Cloudy
10:20 AM53.6 °F51.8 °F94 %29.86 in6.2 miSSW (200°)8.1 mphMostly Cloudy
10:50 AM53.6 °F50.0 °F88 %29.86 in6.2 miSouth (190°)8.1 mphMostly Cloudy
11:20 AM53.6 °F51.8 °F94 %29.86 in6.2 miSSW (200°)8.1 mphMostly Cloudy
11:50 AM53.6 °F51.8 °F94 %29.83 in5.6 miSSW (210°)8.1 mphRainLight Rain Showers
12:20 PM53.6 °F50.0 °F88 %29.83 in5.6 miSSW (210°)10.4 mphRainRain Showers
12:50 PM53.6 °F51.8 °F94 %29.83 in1.6 miSSW (200°)10.4 mphRainRain Showers
1:20 PM53.6 °F51.8 °F94 %29.80 in3.7 miSSW (210°)10.4 mphRainLight Rain Showers
1:50 PM53.6 °F51.8 °F94 %29.80 in6.2 miSSW (210°)13.8 mphMostly Cloudy
2:20 PM55.4 °F51.8 °F88 %29.77 in6.2 miSouth (190°)13.8 mphScattered Clouds
2:50 PM53.6 °F51.8 °F94 %29.77 in6.2 miSSW (200°)11.5 mphMostly Cloudy
3:20 PM53.6 °F50.0 °F88 %29.74 in6.2 miSSW (200°)11.5 mphMostly Cloudy
3:50 PM51.8 °F50.0 °F94 %29.74 in6.2 miSouth (190°)10.4 mphMostly Cloudy
4:20 PM51.8 °F50.0 °F94 %29.74 in6.2 miSouth (190°)8.1 mphPartly Cloudy
4:50 PM51.8 °F48.2 °F88 %29.71 in6.2 miSouth (180°)10.4 mphScattered Clouds
5:20 PM51.8 °F48.2 °F88 %29.71 in6.2 miSouth (180°)8.1 mphScattered Clouds
5:50 PM51.8 °F50.0 °F94 %29.71 in6.2 miSouth (180°)8.1 mphMostly Cloudy
6:20 PM51.8 °F50.0 °F94 %29.68 in6.2 miSouth (170°)8.1 mphMostly Cloudy
6:50 PM51.8 °F50.0 °F94 %29.65 in6.2 miSSE (160°)5.8 mphMostly Cloudy
7:20 PM51.8 °F50.0 °F94 %29.65 in6.2 miSSE (160°)3.5 mphScattered Clouds
7:50 PM51.8 °F50.0 °F94 %29.62 in6.2 miSSE (150°)5.8 mphScattered Clouds
8:20 PM51.8 °F50.0 °F94 %29.62 in6.2 miSSE (150°)4.6 mphScattered Clouds
Hourly data recorded from EGKB, located miles away from Cranbrook, England







STORIES FROM OUR PARTNERS